Showing default

TIANQI 20, 64061

Orbit data source: Space-Track

TIANQI 20, 64061 is a payload satellite owned by Guodian Gaokeji (CN) in LEO that was launched on Mon, 19 May 2025 UTC via a GUSHENXING 1 launch vehicle from the Yellow Sea Launch Area, China (YSLA). Payload-class satellites include a variety of spacecraft equipped with specific instruments for various scientific and technological missions. These include communications satellites like Starlink; space stations such as the ISS; scientific satellites like the Hubble; Earth observation satellites from companies like Planet Labs, Umbra, and HawkEye 360; GPS; miniature CubeSats for education and research; and military/defense satellites.

Loading next visibility...
Identifier
64061, 2025-105D
Orbit
LEO
Country
Flag of CNCN / PRC
Related business
Manufacturer
Shanghai ASES
Mission
Operational Commercial Communications
Bus & Motor
STARLIGHTB, Unknown motor
Mass
40 kg wet, ~40 kg dry
Launch date (UTC)
2025-05-19 (7 months ago)
Launch vehicle
GUSHENXING 1
Launch site
Yellow Sea Launch Area, China (YSLA)
Object type
Payload
Rocket body
Debris
Shape & HBR
Box, 0.3 m
Radar Cross Section
0.195 m², Medium (>0.1 m² and < 1m²)

Expand to show TLE details & history
Last TLE update: 9 hours ago

TLE from 9 hours ago
0 TIANQI 20
1 64061U 25105D   25346.93199178  .00000094  00000-0  15273-3 0  9991
2 64061  44.9839 130.6381 0009991 221.8931 138.1138 13.99078422 29126
Epoch: 2025-12-12T22:22Z
TLE epoch observation values (Epoch: 2025-12-12T22:22:04.089Z)
Latitude
-0.00001°
Longitude
73.25453°
Altitude
902.399 km
Speed
7.4 km/s
True Right ascension
08h 42m 33s
True Declination
0° 00' 00"
Sunlit
Object was in full shadow at epoch
Visualization orbit readout
Latitude
Unknown
Longitude
Unknown
Altitude
Unknown
Speed
Unknown
Apparent Right ascension
Unknown
Apparent Declination
Unknown
Sunlit
N/A
Visualization observer readout
Local Sidereal Time
05:23:51
Azimuth
Unknown
Elevation
Unknown
Doppler factor
Unknown
Orbital elements
Apogee altitude
905.779 km
Perigee altitude
891.239 km
Semi-major axis
7,276.646 km
Eccentricity
0.001
Inclination
44.9839°
RAAN
130.6381°
Arg. of periapsis
221.8931°
True anomaly
138.19017°
Mean anomaly
138.1138°
Eccentric anomaly
138.15199°
Mean motion
3.4966 °/min
Orbital period
102.96 mins
BSTAR
0.00015273
Loading maneuver chart data...
Computing Atmospheric mass density...
Loading historical data...
Loading historical data...
Loading historical data...
Loading historical data...
Loading historical data...
Loading historical data...
Loading historical data...
Other satellites on launch #105 in the year 2025 (2025-05-19 UTC)

Documentation

Showing up to 5 results
|